Home > Weather > Prudhoe Bay > Past weeks

Flag for USA Past Weather in Prudhoe Bay, Alaska, USA — Yesterday and Last 2 Weeks

Now
53 °F

Partly sunny.


Feels Like: 51 °F
Forecast: 49 / 59 °F
Wind: 8 mph from Southeast

Location: Deadhorse Airport

Current Time: Jul 27, 2016 at 1:47:03 AM

Latest Report: Jul 27, 2016 at 12:53 AM


Visibility: 10 mi

Pressure: 29.68 "Hg

Humidity: 77%

Dew Point: 46 °F

Location of Prudhoe BayLocation

Past Weather in Prudhoe Bay — Graph

°F

Prudhoe Bay Temperature Yesterday

Maximum temperature yesterday: 62 °F (at 3:53 PM)
Minimum temperature yesterday: 36 °F (at 12:00 AM)
Average temperature yesterday: 49 °F

High & Low Weather Summary for the Past Weeks

 TemperatureHumidityPressure
High85 °F (Jul 13, 6:53 PM)100% (Jul 22, 4:53 AM)30.26 "Hg (Jul 22, 4:53 AM)
Low32 °F (Jul 20, 5:53 AM)30% (Jul 13, 1:53 PM)29.69 "Hg (Jul 26, 11:53 PM)
Average48 °F78%29.96 "Hg
* Reported Jul 11 11:53 PM — Jul 26 11:53 PM, Prudhoe Bay, Weather by CustomWeather, © 2016

Note: Actual official high and low records may vary slightly from our data, if they occured in-between our weather recording intervals... More about our weather records

Advertising

Prudhoe Bay Weather History for the Previous 24 Hours

Scroll right to see more
 ConditionsComfort  
Time TempWeatherWind HumidityBarometerVisibility
11:53 PM
Tue, Jul 26
55 °FBroken clouds.7 mph72%29.69 "Hg10 mi
10:53 PM57 °FBroken clouds.7 mph62%29.70 "Hg10 mi
9:53 PM55 °FBroken clouds.8 mph59%29.71 "Hg10 mi
8:53 PM56 °FBroken clouds.13 mph44%29.71 "Hg10 mi
7:53 PM59 °FPartly sunny.13 mph42%29.71 "Hg10 mi
6:53 PM61 °FScattered clouds.14 mph35%29.72 "Hg10 mi
5:53 PM61 °FScattered clouds.13 mph42%29.73 "Hg10 mi
4:53 PM62 °FSunny.12 mph46%29.74 "Hg10 mi
3:53 PM62 °FPassing clouds.8 mph44%29.74 "Hg10 mi
2:53 PM60 °FPassing clouds.6 mph52%29.75 "Hg10 mi
1:53 PM57 °FPartly sunny.3 mph58%29.76 "Hg10 mi
12:53 PM53 °FBroken clouds.3 mph66%29.76 "Hg10 mi
11:53 AM50 °FPartly sunny.3 mph74%29.76 "Hg10 mi
10:53 AM48 °FPartly sunny.3 mph80%29.77 "Hg10 mi
9:53 AM43 °FOvercast.No wind93%29.77 "Hg10 mi
8:53 AM41 °FFog.5 mph96%29.78 "Hg6 mi
7:53 AM40 °FFog.3 mph97%29.77 "Hg6 mi
6:53 AM39 °FFog.3 mph100%29.78 "Hg1 mi
5:53 AM38 °FFog.No wind100%29.80 "Hg0 mi
4:53 AM39 °FFog.5 mph100%29.80 "Hg0 mi
3:53 AM38 °FFog.10 mph100%29.80 "Hg0 mi
2:53 AM37 °FFog.8 mph100%29.82 "Hg1 mi
1:53 AM36 °FFog.16 mph100%29.82 "Hg1 mi
Weather by CustomWeather, © 2016

See weather overviewHow to use our weather pages